International Skating Union - Official Site

Essent ISU World Cup Heerenveen
March 8-10, 2013

Draw | Lap Times | Index | World Cup

Referee: Ekaterina  PILSHCHIKOVA  (RUS)
Starter: Trond  RATDAL  (NOR)
StartTime: EndTime: Air Temp: Ice Temp: Humidity:
14:53 15:34
Result 3000m Ladies Division A
Rankings as of Mar 9 2013 3:53PM
Rank: No.: Name: Nation: Time: Behind: Points:
1 49 Ireen  Wüst NED NED 3:58.68200m - 19.39 - (19.4)
600m - 49.48 - (30.0)
1000m - 1:20.59 - (31.1)
1400m - 1:52.14 - (31.5)
1800m - 2:23.31 - (31.1)
2200m - 2:54.34 - (31.0)
2600m - 3:26.24 - (31.9)
3000m - 3:58.68 - (32.4)
150
2 46 Diane  Valkenburg NED NED 4:04.75200m - 20.66 - (20.6)
600m - 51.96 - (31.3)
1000m - 1:24.29 - (32.3)
1400m - 1:56.08 - (31.7)
1800m - 2:27.82 - (31.7)
2200m - 2:59.42 - (31.6)
2600m - 3:31.58 - (32.1)
3000m - 4:04.75 - (33.1)
6.07 120
3 47 Linda  de Vries NED NED 4:04.87200m - 19.89 - (19.8)
600m - 50.73 - (30.8)
1000m - 1:21.80 - (31.0)
1400m - 1:53.29 - (31.4)
1800m - 2:25.38 - (32.0)
2200m - 2:57.90 - (32.5)
2600m - 3:31.09 - (33.1)
3000m - 4:04.87 - (33.7)
6.19 105
4 20 Claudia  Pechstein GER GER 4:05.82200m - 20.18 - (20.1)
600m - 51.23 - (31.0)
1000m - 1:22.84 - (31.6)
1400m - 1:54.81 - (31.9)
1800m - 2:26.94 - (32.1)
2200m - 2:59.57 - (32.6)
2600m - 3:32.65 - (33.0)
3000m - 4:05.82 - (33.1)
7.14 90
5 40 Marije  Joling NED NED 4:06.30200m - 19.81 - (19.8)
600m - 50.63 - (30.8)
1000m - 1:21.91 - (31.2)
1400m - 1:53.53 - (31.6)
1800m - 2:25.67 - (32.1)
2200m - 2:58.67 - (33.0)
2600m - 3:32.25 - (33.5)
3000m - 4:06.30 - (34.0)
7.62 75
6 14 Martina  Sábliková CZE CZE 4:07.44200m - 20.57 - (20.5)
600m - 52.25 - (31.6)
1000m - 1:24.29 - (32.0)
1400m - 1:56.73 - (32.4)
1800m - 2:29.07 - (32.3)
2200m - 3:01.63 - (32.5)
2600m - 3:34.20 - (32.5)
3000m - 4:07.44 - (33.2)
8.76 45
7 24 Masako  Hozumi JPN JPN 4:08.46200m - 20.50 - (20.5)
600m - 51.89 - (31.3)
1000m - 1:23.93 - (32.0)
1400m - 1:56.39 - (32.4)
1800m - 2:29.12 - (32.7)
2200m - 3:02.13 - (33.0)
2600m - 3:35.43 - (33.3)
3000m - 4:08.46 - (33.0)
9.78 40
8 31 Bo-Reum  Kim KOR KOR 4:08.51200m - 21.10 - (21.1)
600m - 53.59 - (32.4)
1000m - 1:26.23 - (32.6)
1400m - 1:58.80 - (32.5)
1800m - 2:31.46 - (32.6)
2200m - 3:04.27 - (32.8)
2600m - 3:36.67 - (32.4)
3000m - 4:08.51 - (31.8)
9.83 36
9 52 Katarzyna  Bachleda-Curus POL POL 4:08.79200m - 20.17 - (20.1)
600m - 50.74 - (30.5)
1000m - 1:22.15 - (31.4)
1400m - 1:54.39 - (32.2)
1800m - 2:27.26 - (32.8)
2200m - 3:00.79 - (33.5)
2600m - 3:34.64 - (33.8)
3000m - 4:08.79 - (34.1)
10.11 32
10 51 Ida  Njåtun NOR NOR 4:09.34200m - 20.26 - (20.2)
600m - 52.30 - (32.0)
1000m - 1:24.09 - (31.7)
1400m - 1:56.17 - (32.0)
1800m - 2:28.77 - (32.6)
2200m - 3:01.62 - (32.8)
2600m - 3:35.12 - (33.5)
3000m - 4:09.34 - (34.2)
10.66 28
11 58 Olga  Graf RUS RUS 4:09.57200m - 20.44 - (20.4)
600m - 51.94 - (31.5)
1000m - 1:24.57 - (32.6)
1400m - 1:57.57 - (33.0)
1800m - 2:30.42 - (32.8)
2200m - 3:03.21 - (32.7)
2600m - 3:36.29 - (33.0)
3000m - 4:09.57 - (33.2)
10.89 24
12 16 Stephanie  Beckert GER GER 4:09.92200m - 21.35 - (21.3)
600m - 53.62 - (32.2)
1000m - 1:25.99 - (32.3)
1400m - 1:58.34 - (32.3)
1800m - 2:31.12 - (32.7)
2200m - 3:03.91 - (32.7)
2600m - 3:37.11 - (33.2)
3000m - 4:09.92 - (32.8)
11.24 21
13 8 Cindy  Klassen CAN CAN 4:10.71200m - 20.64 - (20.6)
600m - 52.66 - (32.0)
1000m - 1:25.25 - (32.5)
1400m - 1:57.65 - (32.4)
1800m - 2:30.25 - (32.6)
2200m - 3:02.88 - (32.6)
2600m - 3:36.20 - (33.3)
3000m - 4:10.71 - (34.5)
12.03 18
14 4 Ivanie  Blondin CAN CAN 4:11.67200m - 20.92 - (20.9)
600m - 52.75 - (31.8)
1000m - 1:25.02 - (32.2)
1400m - 1:57.23 - (32.2)
1800m - 2:30.17 - (32.9)
2200m - 3:03.34 - (33.1)
2600m - 3:37.07 - (33.7)
3000m - 4:11.67 - (34.6)
12.99 16
15 56 Yevgeniya  Dmitriyeva RUS RUS 4:11.95200m - 20.50 - (20.5)
600m - 52.34 - (31.8)
1000m - 1:24.64 - (32.3)
1400m - 1:57.06 - (32.4)
1800m - 2:29.96 - (32.9)
2200m - 3:03.31 - (33.3)
2600m - 3:37.39 - (34.0)
3000m - 4:11.95 - (34.5)
13.27 14
16 48 Annouk  van der Weijden NED NED 4:14.05200m - 19.93 - (19.9)
600m - 51.19 - (31.2)
1000m - 1:23.82 - (32.6)
1400m - 1:56.82 - (33.0)
1800m - 2:29.99 - (33.1)
2200m - 3:03.94 - (33.9)
2600m - 3:38.46 - (34.5)
3000m - 4:14.05 - (35.5)
15.37 12